EN

Hourly Weather Abtenau

Today, 24 November, Tuesday

Time Temperature Precipitation Wind Pressure Humidity
00:00 0°C° 0 mm 1 mps 673 mmHg 83%
01:00 0°C° 0 mm 1 mps 672 mmHg 88%
02:00 0°C° 0 mm 1 mps 672 mmHg 88%
03:00 0°C° 0 mm 1 mps 672 mmHg 88%
04:00 -1°C° 0 mm 1 mps 671 mmHg 89%
05:00 0°C° 0 mm 1 mps 671 mmHg 88%
06:00 0°C° 0 mm 1 mps 671 mmHg 88%
07:00 0°C° 0 mm 1 mps 671 mmHg 87%
08:00 +1°C° 0 mm 1 mps 672 mmHg 81%
09:00 +3°C° 0 mm 1 mps 672 mmHg 75%
10:00 +5°C° 0 mm 1 mps 672 mmHg 69%
11:00 +6°C° 0 mm 1 mps 672 mmHg 67%
12:00 +7°C° 0 mm 1 mps 672 mmHg 64%
13:00 +8°C° 0 mm 1 mps 671 mmHg 62%
14:00 +7°C° 0 mm 1 mps 671 mmHg 67%
15:00 +5°C° 0 mm 1 mps 670 mmHg 73%
16:00 +4°C° 0 mm 1 mps 669 mmHg 79%
17:00 +2°C° 0 mm 2 mps 669 mmHg 77%
18:00 +1°C° 0 mm 2 mps 669 mmHg 76%
19:00 +1°C° 0 mm 2 mps 669 mmHg 74%
20:00 +1°C° 0 mm 2 mps 669 mmHg 71%
21:00 -1°C° 0 mm 2 mps 669 mmHg 67%
22:00 -1°C° 0 mm 2 mps 669 mmHg 64%
23:00 -1°C° 0 mm 2 mps 669 mmHg 61%

Tomorrow, 25 November, Wednesday

Time Temperature Precipitation Wind Pressure Humidity
00:00 -1°C° 0 mm 2 mps 669 mmHg 59%
01:00 -1°C° 0 mm 2 mps 669 mmHg 56%
02:00 -1°C° 0 mm 2 mps 668 mmHg 55%
03:00 -1°C° 0 mm 2 mps 668 mmHg 54%
04:00 -1°C° 0 mm 2 mps 667 mmHg 53%
05:00 -1°C° 0 mm 2 mps 667 mmHg 53%
06:00 -1°C° 0 mm 2 mps 668 mmHg 52%
07:00 -1°C° 0 mm 2 mps 668 mmHg 52%
08:00 +3°C° 0 mm 1 mps 668 mmHg 51%
09:00 +5°C° 0 mm 1 mps 668 mmHg 50%
10:00 +6°C° 0 mm 1 mps 669 mmHg 49%
11:00 +8°C° 0 mm 1 mps 669 mmHg 49%
12:00 +9°C° 0 mm 1 mps 669 mmHg 49%
13:00 +9°C° 0 mm 0 mps 669 mmHg 50%
14:00 +8°C° 0 mm 1 mps 668 mmHg 56%
15:00 +6°C° 0 mm 1 mps 668 mmHg 62%
16:00 +5°C° 0 mm 1 mps 667 mmHg 68%
17:00 +4°C° 0 mm 1 mps 668 mmHg 68%
18:00 +3°C° 0 mm 1 mps 668 mmHg 68%
19:00 +3°C° 0 mm 1 mps 668 mmHg 69%
20:00 +3°C° 0 mm 1 mps 668 mmHg 67%
21:00 +2°C° 0 mm 1 mps 668 mmHg 66%
22:00 +2°C° 0 mm 1 mps 668 mmHg 65%
23:00 +2°C° 0 mm 1 mps 668 mmHg 64%

Day after tomorrow, 26 November, Thursday

Time Temperature Precipitation Wind Pressure Humidity
00:00 +2°C° 0 mm 1 mps 668 mmHg 63%
01:00 +2°C° 0 mm 1 mps 668 mmHg 62%
02:00 +2°C° 0 mm 1 mps 668 mmHg 62%
03:00 +2°C° 0 mm 1 mps 668 mmHg 62%
04:00 +2°C° 0 mm 1 mps 668 mmHg 61%
05:00 +1°C° 0 mm 1 mps 668 mmHg 61%
06:00 +1°C° 0 mm 1 mps 668 mmHg 61%
07:00 +1°C° 0 mm 1 mps 668 mmHg 60%
08:00 +3°C° 0 mm 1 mps 668 mmHg 58%
09:00 +3°C° 0 mm 0 mps 668 mmHg 56%
10:00 +5°C° 0 mm 0 mps 669 mmHg 54%
11:00 +6°C° 0 mm 0 mps 669 mmHg 53%
12:00 +7°C° 0 mm 0 mps 668 mmHg 52%
13:00 +8°C° 0 mm 0 mps 668 mmHg 51%
14:00 +6°C° 0 mm 0 mps 668 mmHg 59%
15:00 +4°C° 0 mm 0 mps 667 mmHg 67%
16:00 +2°C° 0 mm 0 mps 666 mmHg 74%
17:00 +2°C° 0 mm 0 mps 666 mmHg 74%
18:00 +2°C° 0 mm 0 mps 666 mmHg 74%
19:00 +2°C° 0 mm 1 mps 667 mmHg 74%
20:00 +2°C° 0 mm 1 mps 667 mmHg 74%
21:00 +2°C° 0 mm 1 mps 667 mmHg 73%
22:00 +2°C° 0 mm 1 mps 667 mmHg 72%
23:00 +2°C° 0 mm 1 mps 666 mmHg 72%

27 November, Friday

Time Temperature Precipitation Wind Pressure Humidity
00:00 +2°C° 0 mm 1 mps 666 mmHg 72%
01:00 +1°C° 0 mm 1 mps 666 mmHg 72%
02:00 +1°C° 0 mm 1 mps 666 mmHg 72%
03:00 +1°C° 0 mm 1 mps 666 mmHg 72%
04:00 +1°C° 0 mm 1 mps 665 mmHg 72%
05:00 +1°C° 0 mm 1 mps 665 mmHg 72%
06:00 +1°C° 0 mm 1 mps 665 mmHg 71%
07:00 +1°C° 0 mm 1 mps 665 mmHg 71%
08:00 +1°C° 0 mm 0 mps 666 mmHg 67%
09:00 +3°C° 0 mm 0 mps 666 mmHg 63%
10:00 +4°C° 0 mm 0 mps 666 mmHg 59%
11:00 +5°C° 0 mm 0 mps 666 mmHg 57%
12:00 +6°C° 0 mm 0 mps 666 mmHg 55%
13:00 +7°C° 0 mm 0 mps 666 mmHg 54%
14:00 +5°C° 0 mm 0 mps 665 mmHg 62%
15:00 +4°C° 0 mm 0 mps 665 mmHg 70%
16:00 +3°C° 0 mm 1 mps 664 mmHg 79%
17:00 +2°C° 0 mm 1 mps 665 mmHg 81%
18:00 +2°C° 0 mm 1 mps 665 mmHg 82%
19:00 +1°C° 0 mm 1 mps 665 mmHg 84%
20:00 +1°C° 0 mm 1 mps 665 mmHg 84%
21:00 -1°C° 0 mm 2 mps 665 mmHg 84%
22:00 -2°C° 0 mm 2 mps 665 mmHg 84%
23:00 -2°C° 0 mm 2 mps 665 mmHg 84%

28 November, Saturday

Time Temperature Precipitation Wind Pressure Humidity
00:00 -2°C° 0 mm 2 mps 665 mmHg 83%
01:00 -2°C° 0 mm 2 mps 665 mmHg 82%
02:00 -2°C° 0 mm 2 mps 665 mmHg 81%
03:00 -1°C° 0 mm 2 mps 665 mmHg 80%
04:00 -1°C° 0 mm 2 mps 665 mmHg 80%
05:00 -1°C° 0 mm 2 mps 665 mmHg 82%
06:00 -1°C° 0 mm 2 mps 665 mmHg 83%
07:00 -1°C° 0 mm 2 mps 665 mmHg 85%
08:00 +1°C° 0 mm 2 mps 665 mmHg 82%
09:00 +3°C° 0 mm 2 mps 665 mmHg 78%
10:00 +5°C° 0 mm 1 mps 666 mmHg 75%
11:00 +6°C° 0 mm 1 mps 666 mmHg 73%
12:00 +7°C° 0 mm 1 mps 666 mmHg 71%
13:00 +8°C° 0 mm 1 mps 666 mmHg 69%
14:00 +7°C° 0 mm 1 mps 665 mmHg 76%
15:00 +6°C° 0 mm 1 mps 665 mmHg 82%
16:00 +4°C° 0 mm 1 mps 664 mmHg 89%
17:00 +3°C° 0 mm 2 mps 664 mmHg 90%
18:00 +2°C° 0 mm 2 mps 664 mmHg 91%
19:00 +2°C° 0 mm 2 mps 664 mmHg 92%
20:00 +2°C° 0 mm 2 mps 664 mmHg 92%
21:00 +2°C° 0 mm 2 mps 664 mmHg 92%
22:00 +2°C° 0 mm 2 mps 664 mmHg 92%
23:00 +2°C° 0 mm 2 mps 664 mmHg 92%

29 November, Sunday

Time Temperature Precipitation Wind Pressure Humidity
00:00 +2°C° 0 mm 2 mps 663 mmHg 93%
01:00 +2°C° 0 mm 2 mps 663 mmHg 93%
02:00 +2°C° 0 mm 2 mps 663 mmHg 93%
03:00 +2°C° 0 mm 2 mps 663 mmHg 93%
04:00 +2°C° 0 mm 2 mps 662 mmHg 93%
05:00 +1°C° 0 mm 2 mps 662 mmHg 93%
06:00 +2°C° 0 mm 1 mps 662 mmHg 93%
07:00 +2°C° 0 mm 1 mps 662 mmHg 93%
08:00 +3°C° 0 mm 1 mps 662 mmHg 90%
09:00 +4°C° 0 mm 1 mps 663 mmHg 87%
10:00 +5°C° 0 mm 1 mps 663 mmHg 84%
11:00 +6°C° 0 mm 1 mps 663 mmHg 82%
12:00 +7°C° 0 mm 1 mps 663 mmHg 80%
13:00 +7°C° 0 mm 1 mps 663 mmHg 78%
14:00 +6°C° 0 mm 1 mps 663 mmHg 83%
15:00 +5°C° 0 mm 1 mps 663 mmHg 88%
16:00 +4°C° 0 mm 1 mps 662 mmHg 93%
17:00 +4°C° 0 mm 1 mps 662 mmHg 93%
18:00 +3°C° 0 mm 1 mps 663 mmHg 94%
19:00 +2°C° 0 mm 0 mps 663 mmHg 94%
20:00 +2°C° 0 mm 0 mps 663 mmHg 95%
21:00 +2°C° 0 mm 0 mps 663 mmHg 95%
22:00 +2°C° 0 mm 0 mps 663 mmHg 96%
23:00 +2°C° 0 mm 0 mps 663 mmHg 96%
Show more